Powrót do katalogu

FENGYUN 1C DEB

AktywnyPO
NORAD 32181·DEBRIS·🇨🇳 China

Wystrzelony May 10, 1999 z Taiyuan Satellite Launch Center

Loading…

Następne Przeloty (najbliższe 24 godziny)

TLE

ŚwieżeSource: Space-Track

Epoka: Sep 14, 2026, 08:46 UTC

1 32181U 99025CUB 26257.36573322  .00002329  00000-0  50119-3 0  9998
2 32181  99.4980  44.0613 0070282 342.8870  46.5930 14.58187388  7305

Śledź FENGYUN 1C DEB w czasie rzeczywistym z AllMySat

Download on the App Store